GW0463 Weather Reports


Display with metric or nautical units.
time (UTC)temp
F
wind
direction
speed
MPH
gust
MPH
rain 1hr
in
rain 24hr
in
rain mn
in
humidity
%
barometer
mb
20260502151612 54 0 0.0 2.0 0.00 0.00 0.00 52 1020.6
20260502150109 52 0 0.0 4.0 0.00 0.00 0.00 55 1020.6
20260502123056 39 0 0.0 0.0 0.00 0.00 0.00 66 1019.8
20260502121601 38 0 0.0 0.0 0.00 0.00 0.00 66 1019.7
20260502120109 38 0 0.0 0.0 0.00 0.00 0.00 67 1019.7
20260502114600 38 0 0.0 0.0 0.00 0.00 0.00 66 1019.6
20260502113053 38 0 0.0 0.0 0.00 0.00 0.00 66 1019.7
20260502111559 39 0 0.0 0.0 0.00 0.00 0.00 66 1019.8
20260502110053 39 0 0.0 0.0 0.00 0.00 0.00 65 1019.7
20260502104559 39 0 0.0 0.0 0.00 0.00 0.00 64 1019.8
20260502103053 40 0 0.0 0.0 0.00 0.00 0.00 64 1019.8
20260502101555 40 0 0.0 0.0 0.00 0.00 0.00 63 1019.8
20260502100115 41 0 0.0 0.0 0.00 0.00 0.00 63 1019.8
20260502070059 45 0 0.0 0.0 0.00 0.00 0.00 57 1019.6
20260502064609 46 0 0.0 0.0 0.00 0.00 0.00 55 1019.6
20260502063058 47 0 0.0 0.0 0.00 0.00 0.00 53 1019.7
20260502061554 47 0 0.0 0.0 0.00 0.00 0.00 52 1019.5
20260502054556 49 0 0.0 0.0 0.00 0.00 0.00 52 1019.6
20260502053052 49 0 0.0 0.0 0.00 0.00 0.00 51 1019.3
20260502051643 50 0 0.0 0.0 0.00 0.00 0.00 50 1019.2
20260502050052 51 0 0.0 0.0 0.00 0.00 0.00 49 1019.1
20260502044607 51 0 0.0 0.0 0.00 0.00 0.00 48 1019.1
20260502043058 52 0 0.0 0.0 0.00 0.00 0.00 47 1019.0
20260502041552 53 0 0.0 2.0 0.00 0.00 0.00 46 1018.9
20260502040054 53 0 0.0 0.0 0.00 0.00 0.00 44 1018.9
20260502034552 54 0 0.0 1.0 0.00 0.00 0.00 42 1018.7
20260502033056 55 0 0.0 1.0 0.00 0.00 0.00 37 1018.5
20260502031608 57 0 0.0 0.0 0.00 0.00 0.00 35 1018.3
20260502030054 59 0 0.0 0.0 0.00 0.00 0.00 32 1018.1
20260502024556 61 0 0.0 0.0 0.00 0.00 0.00 30 1017.8
20260502023057 63 0 0.0 1.0 0.00 0.00 0.00 26 1017.8
20260502021556 65 0 0.0 3.0 0.00 0.00 0.00 24 1017.7
20260502020105 66 278 1.0 7.0 0.00 0.00 0.00 23 1017.6
20260502014553 66 274 2.0 7.0 0.00 0.00 0.00 21 1017.5
20260502013054 66 289 3.0 9.0 0.00 0.00 0.00 20 1017.5
20260502011552 67 283 3.0 8.0 0.00 0.00 0.00 19 1017.4
20260502010057 67 282 4.0 8.0 0.00 0.00 0.00 20 1017.5
20260502004552 67 284 5.0 10.0 0.00 0.00 0.00 19 1017.6
20260502003054 68 279 5.0 10.0 0.00 0.00 0.00 18 1017.7
20260502001558 67 287 3.0 11.0 0.00 0.00 0.00 19 1017.7
20260502000055 67 282 6.0 11.0 0.00 0.00 0.00 19 1017.7
20260501234559 68 290 5.0 12.0 0.00 0.00 0.00 19 1017.8
20260501233100 68 290 6.0 11.0 0.00 0.00 0.00 19 1017.8
20260501231600 68 306 3.0 12.0 0.00 0.00 0.00 19 1017.8
20260501230053 68 298 2.0 13.0 0.00 0.00 0.00 19 1018.1
20260501224551 67 296 6.0 13.0 0.00 0.00 0.00 19 1018.1
20260501223056 67 297 5.0 11.0 0.00 0.00 0.00 20 1018.4
20260501221555 67 305 5.0 11.0 0.00 0.00 0.00 21 1018.7
20260501220058 67 275 6.0 12.0 0.00 0.00 0.00 21 1018.9
20260501214612 67 315 5.0 10.0 0.00 0.00 0.00 20 1018.9
20260501213104 66 298 5.0 12.0 0.00 0.00 0.00 21 1019.2
20260501211555 66 312 3.0 11.0 0.00 0.00 0.00 21 1019.3
20260501210056 66 301 3.0 12.0 0.00 0.00 0.00 21 1019.4
20260501204559 66 288 5.0 11.0 0.00 0.00 0.00 22 1019.4
20260501203101 65 285 5.0 12.0 0.00 0.00 0.00 21 1019.4
20260501201557 65 296 2.0 9.0 0.00 0.00 0.00 22 1019.5
20260501200057 65 280 1.0 10.0 0.00 0.00 0.00 24 1019.6
20260501194602 64 304 2.0 7.0 0.00 0.00 0.00 22 1019.7
20260501193056 64 227 4.0 10.0 0.00 0.00 0.00 21 1019.8
20260501191554 64 298 3.0 12.0 0.00 0.00 0.00 20 1020.0
20260501190116 64 305 1.0 9.0 0.00 0.00 0.00 20 1020.1
20260501184554 64 46 2.0 10.0 0.00 0.00 0.00 22 1020.1
20260501183058 64 13 2.0 8.0 0.00 0.00 0.00 22 1020.3
20260501181552 64 42 3.0 9.0 0.00 0.00 0.00 21 1020.4
20260501180054 64 0 0.0 7.0 0.00 0.00 0.00 18 1020.5
20260501174607 64 38 1.0 7.0 0.00 0.00 0.00 23 1020.5
20260501173106 63 103 6.0 11.0 0.00 0.00 0.00 20 1020.6
20260501171600 63 90 2.0 10.0 0.00 0.00 0.00 23 1020.7
20260501170055 62 91 3.0 11.0 0.00 0.00 0.00 21 1020.7
20260501164555 62 83 3.0 11.0 0.00 0.00 0.00 24 1020.7
20260501163056 61 67 4.0 12.0 0.00 0.00 0.00 22 1020.8
20260501161554 61 38 3.0 10.0 0.00 0.00 0.00 24 1020.7
20260501160057 60 96 3.0 10.0 0.00 0.00 0.00 23 1020.8
20260501154606 59 0 2.0 6.0 0.00 0.00 0.00 23 1020.7
20260501153052 58 84 2.0 7.0 0.00 0.00 0.00 26 1020.7